SAS82T EETN-ESSA

Flight info

Callsign SAS82T
Flight time 0h 54m
Altitude 34000
Route PETOT DCT RUNGA N872 XILAN
Aircraft A20N/M-SDE2E3FGHIRWXY/LB1

Departure

Time 2026-05-04 17:02
Airport Lennart Meri Tallinn Airport (EETN)

Arrival

Time 2026-05-04 17:56
Airport Stockholm-Arlanda Airport (ESSA)
Time Latitude Longitude Altitude Speed Heading
2026-05-04 16:48 59.41690 24.80051 162 ft 0 kts 181°
2026-05-04 16:52 59.41714 24.80051 162 ft 1 kts 200°
2026-05-04 16:52 59.41737 24.80068 162 ft 4 kts 196°
2026-05-04 16:53 59.41759 24.80067 162 ft 0 kts 140°
2026-05-04 16:57 59.41752 24.80103 162 ft 6 kts 101°
2026-05-04 16:58 59.41693 24.80507 162 ft 0 kts 154°
2026-05-04 16:58 59.41677 24.80513 162 ft 10 kts 178°
2026-05-04 16:59 59.41509 24.80631 162 ft 18 kts 90°
2026-05-04 17:00 59.41503 24.82542 162 ft 39 kts 92°
2026-05-04 17:00 59.41497 24.84305 162 ft 47 kts 90°
2026-05-04 17:01 59.41444 24.85005 162 ft 16 kts 168°
2026-05-04 17:01 59.41321 24.84898 162 ft 0 kts 268°
2026-05-04 17:02 59.41323 24.83757 165 ft 131 kts 270°
2026-05-04 17:02 59.41343 24.78968 1526 ft 197 kts 271°
2026-05-04 17:03 59.41402 24.76191 2784 ft 211 kts 274°
2026-05-04 17:03 59.41522 24.73263 4256 ft 212 kts 275°
2026-05-04 17:03 59.41919 24.67486 6885 ft 225 kts 278°
2026-05-04 17:04 59.42385 24.62094 8732 ft 252 kts 277°
2026-05-04 17:04 59.42971 24.53782 10451 ft 290 kts 276°
2026-05-04 17:05 59.43395 24.47083 12062 ft 310 kts 276°
2026-05-04 17:05 59.43932 24.38541 14459 ft 319 kts 276°
2026-05-04 17:06 59.44477 24.29817 16774 ft 325 kts 276°
2026-05-04 17:06 59.44743 24.25520 17847 ft 328 kts 276°
2026-05-04 17:07 59.45293 24.16539 19838 ft 334 kts 275°
2026-05-04 17:07 59.45476 24.13533 20479 ft 336 kts 275°
2026-05-04 17:07 59.45846 24.07402 21763 ft 340 kts 275°
2026-05-04 17:07 59.46124 24.02767 22702 ft 343 kts 275°
2026-05-04 17:08 59.46404 23.98075 23577 ft 347 kts 275°
2026-05-04 17:08 59.46962 23.88623 25106 ft 353 kts 275°
2026-05-04 17:08 59.47244 23.83809 25831 ft 356 kts 275°
2026-05-04 17:09 59.47527 23.78945 26551 ft 359 kts 275°
2026-05-04 17:09 59.47810 23.74037 27230 ft 363 kts 275°
2026-05-04 17:09 59.48094 23.69089 27908 ft 366 kts 275°
2026-05-04 17:10 59.48663 23.59069 29172 ft 372 kts 275°
2026-05-04 17:10 59.49520 23.43707 30768 ft 381 kts 275°
2026-05-04 17:11 59.49807 23.38500 31383 ft 381 kts 275°
2026-05-04 17:11 59.50090 23.33329 32057 ft 380 kts 275°
2026-05-04 17:11 59.50641 23.23114 33383 ft 376 kts 275°
2026-05-04 17:12 59.50917 23.17954 33659 ft 373 kts 275°
2026-05-04 17:13 59.52858 22.92846 33722 ft 372 kts 277°
2026-05-04 17:14 59.54509 22.72702 33721 ft 373 kts 277°
2026-05-04 17:15 59.55712 22.57553 33717 ft 373 kts 276°
2026-05-04 17:16 59.57289 22.37344 33715 ft 373 kts 276°
2026-05-04 17:17 59.58836 22.17106 33710 ft 373 kts 276°
2026-05-04 17:18 59.60183 21.99127 33711 ft 374 kts 276°
2026-05-04 17:19 59.61674 21.78811 33711 ft 374 kts 276°
2026-05-04 17:20 59.63137 21.58432 33704 ft 375 kts 276°
2026-05-04 17:20 59.64214 21.43125 33701 ft 375 kts 275°
2026-05-04 17:21 59.65625 21.22662 33702 ft 376 kts 275°
2026-05-04 17:22 59.66319 21.12422 33698 ft 376 kts 275°
2026-05-04 17:23 59.67675 20.92038 33698 ft 376 kts 275°
2026-05-04 17:24 59.68678 20.76639 33696 ft 376 kts 275°
2026-05-04 17:25 59.69987 20.56090 33693 ft 376 kts 275°
2026-05-04 17:26 59.71264 20.35530 33691 ft 376 kts 275°
2026-05-04 17:27 59.72814 20.09829 33678 ft 376 kts 274°
2026-05-04 17:28 59.73826 19.89221 31764 ft 381 kts 273°
2026-05-04 17:29 59.74448 19.73477 28881 ft 379 kts 273°
2026-05-04 17:29 59.75076 19.58177 26405 ft 364 kts 273°
2026-05-04 17:30 59.75734 19.43439 24120 ft 351 kts 273°
2026-05-04 17:31 59.76192 19.33904 22575 ft 344 kts 273°
2026-05-04 17:31 59.76875 19.19969 20143 ft 333 kts 273°
2026-05-04 17:32 59.77321 19.10888 18622 ft 328 kts 273°
2026-05-04 17:33 59.77969 18.97534 16304 ft 319 kts 273°
2026-05-04 17:33 59.78170 18.93164 15544 ft 317 kts 273°
2026-05-04 17:34 59.78117 18.80337 13351 ft 311 kts 248°
2026-05-04 17:34 59.76981 18.76691 12570 ft 311 kts 238°
2026-05-04 17:35 59.73285 18.66204 10348 ft 307 kts 238°
2026-05-04 17:35 59.71812 18.58960 9553 ft 283 kts 272°
2026-05-04 17:35 59.72139 18.55962 9426 ft 272 kts 290°
2026-05-04 17:36 59.72906 18.52643 9180 ft 260 kts 292°
2026-05-04 17:36 59.73667 18.49407 8726 ft 257 kts 292°
2026-05-04 17:36 59.74419 18.46198 8224 ft 256 kts 292°
2026-05-04 17:36 59.75165 18.43007 7770 ft 254 kts 292°
2026-05-04 17:37 59.75899 18.39854 7305 ft 251 kts 292°
2026-05-04 17:37 59.76625 18.36696 6851 ft 250 kts 292°
2026-05-04 17:37 59.77341 18.33563 6418 ft 249 kts 292°
2026-05-04 17:37 59.78054 18.30445 5984 ft 247 kts 292°
2026-05-04 17:38 59.78757 18.27351 5536 ft 245 kts 292°
2026-05-04 17:38 59.79454 18.24271 5081 ft 244 kts 292°
2026-05-04 17:38 59.80150 18.21202 4641 ft 243 kts 292°
2026-05-04 17:38 59.80844 18.18167 4235 ft 240 kts 292°
2026-05-04 17:39 59.82221 18.12174 3338 ft 238 kts 292°
2026-05-04 17:39 59.82758 18.09103 2874 ft 235 kts 275°
2026-05-04 17:39 59.82483 18.05963 2581 ft 236 kts 245°
2026-05-04 17:40 59.81367 18.03492 2501 ft 244 kts 216°
2026-05-04 17:40 59.79719 18.02435 2499 ft 258 kts 192°
2026-05-04 17:40 59.78048 18.01534 2500 ft 250 kts 206°
2026-05-04 17:40 59.76390 18.00362 2493 ft 249 kts 202°
2026-05-04 17:41 59.74729 17.99523 2189 ft 250 kts 197°
2026-05-04 17:41 59.73007 17.98856 1841 ft 247 kts 195°
2026-05-04 17:41 59.71359 17.98243 1508 ft 236 kts 195°
2026-05-04 17:41 59.69780 17.97666 1191 ft 225 kts 195°
2026-05-04 17:42 59.68280 17.97118 885 ft 216 kts 194°
2026-05-04 17:42 59.66590 17.96516 1156 ft 280 kts 194°
2026-05-04 17:42 59.64477 17.95783 1594 ft 325 kts 194°
2026-05-04 17:42 59.62471 17.94850 2554 ft 268 kts 199°
2026-05-04 17:43 59.60795 17.94304 3087 ft 234 kts 187°
2026-05-04 17:43 59.59226 17.95046 3016 ft 235 kts 155°
2026-05-04 17:43 59.58100 17.97371 3281 ft 246 kts 118°
2026-05-04 17:43 59.57670 18.00662 3818 ft 241 kts 97°
2026-05-04 17:44 59.57755 18.03866 3973 ft 238 kts 68°
2026-05-04 17:44 59.58475 18.06826 4004 ft 235 kts 57°
2026-05-04 17:44 59.59244 18.09653 4006 ft 233 kts 57°
2026-05-04 17:44 59.60013 18.12469 4001 ft 233 kts 57°
2026-05-04 17:45 59.60791 18.15305 4007 ft 244 kts 57°
2026-05-04 17:45 59.61705 18.18554 4002 ft 282 kts 57°
2026-05-04 17:45 59.62658 18.21915 3999 ft 286 kts 57°
2026-05-04 17:45 59.63636 18.25383 4004 ft 285 kts 57°
2026-05-04 17:46 59.64648 18.28731 3999 ft 282 kts 48°
2026-05-04 17:46 59.66111 18.31084 3997 ft 273 kts 20°
2026-05-04 17:46 59.67816 18.32104 3997 ft 267 kts
2026-05-04 17:46 59.69563 18.32930 3993 ft 267 kts
2026-05-04 17:47 59.71373 18.33775 3996 ft 267 kts
2026-05-04 17:47 59.73161 18.34073 3931 ft 249 kts 345°
2026-05-04 17:47 59.74777 18.33198 3840 ft 235 kts 338°
2026-05-04 17:47 59.76304 18.32292 3749 ft 223 kts 338°
2026-05-04 17:48 59.77756 18.31437 3665 ft 213 kts 338°
2026-05-04 17:48 59.79088 18.30422 3580 ft 196 kts 319°
2026-05-04 17:48 59.79854 18.28411 3517 ft 177 kts 289°
2026-05-04 17:48 59.80269 18.26185 3414 ft 168 kts 288°
2026-05-04 17:49 59.80660 18.24022 3223 ft 166 kts 287°
2026-05-04 17:49 59.80926 18.22561 3073 ft 166 kts 287°
2026-05-04 17:49 59.81324 18.20412 2855 ft 166 kts 287°
2026-05-04 17:49 59.81729 18.18258 2643 ft 166 kts 288°
2026-05-04 17:50 59.82125 18.16117 2497 ft 162 kts 288°
2026-05-04 17:50 59.82516 18.13957 2494 ft 166 kts 287°
2026-05-04 17:50 59.82905 18.11859 2491 ft 164 kts 288°
2026-05-04 17:50 59.83297 18.09737 2493 ft 163 kts 288°
2026-05-04 17:51 59.83646 18.07594 2488 ft 163 kts 275°
2026-05-04 17:51 59.83367 18.05532 2494 ft 155 kts 234°
2026-05-04 17:51 59.82621 18.04089 2536 ft 149 kts 227°
2026-05-04 17:51 59.81819 18.02747 2493 ft 152 kts 219°
2026-05-04 17:52 59.80885 18.01876 2500 ft 158 kts 205°
2026-05-04 17:52 59.79801 18.01329 2501 ft 162 kts 199°
2026-05-04 17:52 59.78696 18.00921 2497 ft 161 kts 199°
2026-05-04 17:52 59.77597 18.00515 2497 ft 161 kts 199°
2026-05-04 17:53 59.76497 18.00114 2492 ft 160 kts 199°
2026-05-04 17:53 59.75408 17.99715 2320 ft 158 kts 199°
2026-05-04 17:53 59.74342 17.99326 2119 ft 156 kts 199°
2026-05-04 17:53 59.73302 17.98951 1900 ft 148 kts 199°
2026-05-04 17:54 59.72326 17.98597 1713 ft 135 kts 199°
2026-05-04 17:54 59.71455 17.98280 1538 ft 129 kts 201°
2026-05-04 17:54 59.70571 17.97951 1359 ft 129 kts 199°
2026-05-04 17:54 59.69701 17.97641 1184 ft 125 kts 197°
2026-05-04 17:55 59.68849 17.97325 1037 ft 124 kts 198°
2026-05-04 17:55 59.68000 17.97005 811 ft 126 kts 195°
2026-05-04 17:55 59.67142 17.96703 654 ft 124 kts 194°
2026-05-04 17:55 59.66287 17.96403 461 ft 123 kts 194°
2026-05-04 17:56 59.65433 17.96105 281 ft 125 kts 196°
2026-05-04 17:56 59.64583 17.95788 129 ft 122 kts 196°
2026-05-04 17:56 59.63826 17.95496 115 ft 92 kts 190°
2026-05-04 17:56 59.63396 17.95346 122 ft 46 kts 189°
2026-05-04 17:57 59.63099 17.95226 132 ft 41 kts 196°
2026-05-04 17:57 59.62898 17.94982 136 ft 8 kts 218°
2026-05-04 17:57 59.62856 17.94909 137 ft 11 kts 230°
2026-05-04 17:57 59.62870 17.94775 137 ft 10 kts 336°
2026-05-04 17:58 59.62965 17.94782 135 ft 18 kts
2026-05-04 17:58 59.63120 17.94838 125 ft 27 kts 10°
2026-05-04 17:58 59.63328 17.94918 119 ft 34 kts
2026-05-04 17:58 59.63581 17.95015 115 ft 40 kts
2026-05-04 17:59 59.63827 17.95103 108 ft 27 kts 11°
2026-05-04 17:59 59.63976 17.95152 109 ft 22 kts 10°
2026-05-04 17:59 59.64357 17.95303 105 ft 33 kts
2026-05-04 18:00 59.64601 17.95377 104 ft 38 kts 11°
2026-05-04 18:00 59.64868 17.95483 107 ft 40 kts 11°
2026-05-04 18:00 59.65082 17.95495 115 ft 14 kts 347°
2026-05-04 18:00 59.65186 17.95442 121 ft 17 kts 348°
2026-05-04 18:01 59.65311 17.95373 126 ft 21 kts 347°
2026-05-04 18:01 59.65480 17.95286 126 ft 29 kts 342°
2026-05-04 18:01 59.65668 17.95185 126 ft 13 kts 344°
2026-05-04 18:02 59.65725 17.94828 123 ft 19 kts 256°
2026-05-04 18:02 59.65689 17.94550 121 ft 22 kts 256°
2026-05-04 18:02 59.65648 17.94232 124 ft 26 kts 255°
2026-05-04 18:02 59.65607 17.93846 113 ft 32 kts 260°
2026-05-04 18:03 59.65565 17.93535 112 ft 11 kts 254°
2026-05-04 18:03 59.65549 17.93424 110 ft 8 kts 250°
2026-05-04 18:03 59.65530 17.93360 110 ft 0 kts 223°
2026-05-04 18:03 59.65481 17.93340 111 ft 13 kts 184°
2026-05-04 18:04 59.65385 17.93382 110 ft 9 kts 167°
2026-05-04 18:04 59.65327 17.93414 110 ft 0 kts 165°
2026-05-04 18:04 59.65301 17.93498 109 ft 4 kts 110°
2026-05-04 18:05 59.65296 17.93527 111 ft 0 kts 103°
2026-05-04 18:05 59.65293 17.93552 109 ft 0 kts 106°
2026-05-04 18:05 59.65291 17.93559 111 ft 1 kts 109°
2026-05-04 18:05 59.65288 17.93574 111 ft 0 kts 111°